N70CR MUCF-MUHA

Flight info

Callsign N70CR
Flight time 0h 29m
Altitude 22000
Route VITAK5 XOPLI DCT DUTAN DUTAN1A
Aircraft C700/M-SBDGHM1RWXY/LB2

Departure

Time 2026-05-06 01:22
Airport Jaime Gonzalez Airport (MUCF)

Arrival

Time 2026-05-06 01:52
Airport José Martí International Airport (MUHA)
Time Latitude Longitude Altitude Speed Heading
2026-05-06 01:16 22.15738 -80.41048 105 ft 0 kts 102°
2026-05-06 01:17 22.15739 -80.41054 105 ft 2 kts 99°
2026-05-06 01:17 22.15738 -80.41066 105 ft 2 kts 53°
2026-05-06 01:17 22.15729 -80.41071 80 ft 2 kts 351°
2026-05-06 01:17 22.15724 -80.41071 79 ft 0 kts 16°
2026-05-06 01:19 22.15749 -80.41071 105 ft 7 kts 358°
2026-05-06 01:20 22.15782 -80.41102 104 ft 9 kts 253°
2026-05-06 01:20 22.15755 -80.41166 105 ft 8 kts 237°
2026-05-06 01:20 22.15714 -80.41201 105 ft 0 kts 197°
2026-05-06 01:21 22.15705 -80.41204 105 ft 10 kts 197°
2026-05-06 01:22 22.15417 -80.41293 103 ft 92 kts 197°
2026-05-06 01:22 22.14508 -80.41586 297 ft 168 kts 197°
2026-05-06 01:22 22.13312 -80.41952 914 ft 173 kts 195°
2026-05-06 01:22 22.12140 -80.42289 1279 ft 172 kts 195°
2026-05-06 01:23 22.11011 -80.42647 1741 ft 168 kts 197°
2026-05-06 01:23 22.09881 -80.43073 2160 ft 190 kts 204°
2026-05-06 01:23 22.08920 -80.44078 2559 ft 206 kts 244°
2026-05-06 01:23 22.08836 -80.45593 3027 ft 213 kts 288°
2026-05-06 01:24 22.09726 -80.46864 3460 ft 218 kts 317°
2026-05-06 01:24 22.10883 -80.48072 4380 ft 246 kts 312°
2026-05-06 01:24 22.12044 -80.49554 5682 ft 267 kts 308°
2026-05-06 01:24 22.13210 -80.51120 7429 ft 269 kts 308°
2026-05-06 01:25 22.14413 -80.52694 9094 ft 275 kts 309°
2026-05-06 01:25 22.15658 -80.54310 10564 ft 288 kts 309°
2026-05-06 01:25 22.16970 -80.56029 11614 ft 313 kts 309°
2026-05-06 01:25 22.18367 -80.57854 13163 ft 317 kts 309°
2026-05-06 01:26 22.19788 -80.59713 14584 ft 325 kts 309°
2026-05-06 01:26 22.21234 -80.61606 15961 ft 329 kts 309°
2026-05-06 01:26 22.22701 -80.63527 17330 ft 334 kts 309°
2026-05-06 01:26 22.24186 -80.65482 18627 ft 339 kts 310°
2026-05-06 01:27 22.25701 -80.67453 19803 ft 343 kts 310°
2026-05-06 01:27 22.27226 -80.69448 20983 ft 346 kts 310°
2026-05-06 01:27 22.28769 -80.71475 21961 ft 357 kts 310°
2026-05-06 01:27 22.30341 -80.73658 22051 ft 391 kts 304°
2026-05-06 01:28 22.31736 -80.76287 22065 ft 412 kts 300°
2026-05-06 01:28 22.33151 -80.79022 22065 ft 420 kts 301°
2026-05-06 01:28 22.34602 -80.81770 22062 ft 422 kts 300°
2026-05-06 01:28 22.36043 -80.84536 22065 ft 423 kts 300°
2026-05-06 01:29 22.37475 -80.87309 22064 ft 423 kts 300°
2026-05-06 01:29 22.38913 -80.90079 22063 ft 423 kts 300°
2026-05-06 01:29 22.40353 -80.92847 22061 ft 423 kts 300°
2026-05-06 01:29 22.41792 -80.95618 22062 ft 423 kts 300°
2026-05-06 01:30 22.43209 -80.98350 22063 ft 423 kts 300°
2026-05-06 01:30 22.44645 -81.01121 22064 ft 422 kts 300°
2026-05-06 01:30 22.46081 -81.03893 22060 ft 423 kts 300°
2026-05-06 01:30 22.47517 -81.06665 22059 ft 422 kts 300°
2026-05-06 01:31 22.48951 -81.09435 22059 ft 422 kts 300°
2026-05-06 01:31 22.50385 -81.12207 22057 ft 422 kts 300°
2026-05-06 01:31 22.51819 -81.14981 22060 ft 422 kts 300°
2026-05-06 01:31 22.53250 -81.17750 22062 ft 422 kts 300°
2026-05-06 01:32 22.54666 -81.20491 22062 ft 424 kts 300°
2026-05-06 01:32 22.56105 -81.23279 22064 ft 425 kts 300°
2026-05-06 01:32 22.57547 -81.26073 22061 ft 426 kts 300°
2026-05-06 01:32 22.58989 -81.28872 22063 ft 426 kts 300°
2026-05-06 01:33 22.60432 -81.31670 22059 ft 426 kts 300°
2026-05-06 01:33 22.61876 -81.34470 22058 ft 426 kts 300°
2026-05-06 01:33 22.63236 -81.37311 22053 ft 427 kts 295°
2026-05-06 01:33 22.64223 -81.40341 22049 ft 428 kts 288°
2026-05-06 01:34 22.64827 -81.43503 22042 ft 430 kts 280°
2026-05-06 01:34 22.65036 -81.46739 22042 ft 432 kts 274°
2026-05-06 01:34 22.65118 -81.49947 22042 ft 432 kts 274°
2026-05-06 01:34 22.65231 -81.53195 22044 ft 432 kts 275°
2026-05-06 01:35 22.65333 -81.56441 22043 ft 432 kts 274°
2026-05-06 01:35 22.65423 -81.59690 22045 ft 432 kts 274°
2026-05-06 01:35 22.65515 -81.62936 22043 ft 430 kts 274°
2026-05-06 01:35 22.65613 -81.66156 21672 ft 430 kts 274°
2026-05-06 01:36 22.65708 -81.69358 20993 ft 421 kts 274°
2026-05-06 01:36 22.65797 -81.72507 20328 ft 416 kts 274°
2026-05-06 01:36 22.65887 -81.75623 19683 ft 413 kts 275°
2026-05-06 01:36 22.65976 -81.78675 19055 ft 410 kts 275°
2026-05-06 01:37 22.66062 -81.81751 18437 ft 408 kts 275°
2026-05-06 01:37 22.66148 -81.84809 17735 ft 405 kts 274°
2026-05-06 01:37 22.66234 -81.87834 17036 ft 400 kts 274°
2026-05-06 01:37 22.66317 -81.90830 16348 ft 394 kts 274°
2026-05-06 01:38 22.66395 -81.93716 15677 ft 373 kts 274°
2026-05-06 01:38 22.66469 -81.96461 15015 ft 357 kts 273°
2026-05-06 01:38 22.66545 -81.99117 14362 ft 350 kts 273°
2026-05-06 01:38 22.66617 -82.01744 13721 ft 348 kts 272°
2026-05-06 01:39 22.66687 -82.04355 13014 ft 346 kts 272°
2026-05-06 01:39 22.66754 -82.06899 12327 ft 338 kts 272°
2026-05-06 01:39 22.66821 -82.09401 11719 ft 326 kts 272°
2026-05-06 01:39 22.66883 -82.11726 11207 ft 314 kts 272°
2026-05-06 01:40 22.66944 -82.14055 10683 ft 305 kts 272°
2026-05-06 01:40 22.67005 -82.16319 10171 ft 298 kts 271°
2026-05-06 01:40 22.67060 -82.18499 9631 ft 282 kts 271°
2026-05-06 01:40 22.67115 -82.20573 9068 ft 270 kts 272°
2026-05-06 01:41 22.67284 -82.22535 8512 ft 262 kts 283°
2026-05-06 01:41 22.67908 -82.24358 7967 ft 256 kts 295°
2026-05-06 01:41 22.68662 -82.26084 7435 ft 252 kts 295°
2026-05-06 01:41 22.69385 -82.27794 6913 ft 248 kts 295°
2026-05-06 01:42 22.70106 -82.29480 6397 ft 245 kts 295°
2026-05-06 01:42 22.70820 -82.31151 5847 ft 243 kts 295°
2026-05-06 01:42 22.71511 -82.32765 5313 ft 235 kts 295°
2026-05-06 01:42 22.72209 -82.34398 4781 ft 243 kts 295°
2026-05-06 01:43 22.72927 -82.36080 4242 ft 249 kts 295°
2026-05-06 01:43 22.73645 -82.37761 3726 ft 241 kts 295°
2026-05-06 01:43 22.74309 -82.39321 3192 ft 224 kts 295°
2026-05-06 01:43 22.74952 -82.40828 3044 ft 217 kts 295°
2026-05-06 01:44 22.75580 -82.42298 3038 ft 214 kts 295°
2026-05-06 01:44 22.76203 -82.43757 3040 ft 213 kts 295°
2026-05-06 01:44 22.76824 -82.45215 3036 ft 214 kts 295°
2026-05-06 01:44 22.77450 -82.46686 2897 ft 215 kts 295°
2026-05-06 01:45 22.78076 -82.48151 2716 ft 213 kts 295°
2026-05-06 01:45 22.78696 -82.49614 2476 ft 215 kts 295°
2026-05-06 01:45 22.79340 -82.51048 2211 ft 214 kts 302°
2026-05-06 01:45 22.80359 -82.52186 2049 ft 207 kts 325°
2026-05-06 01:46 22.81537 -82.53079 2044 ft 206 kts 325°
2026-05-06 01:46 22.82660 -82.53969 2038 ft 195 kts 325°
2026-05-06 01:46 22.83750 -82.54813 2036 ft 191 kts 325°
2026-05-06 01:46 22.84828 -82.55650 2036 ft 191 kts 326°
2026-05-06 01:47 22.85992 -82.56305 2037 ft 189 kts 347°
2026-05-06 01:47 22.87287 -82.56394 2039 ft 186 kts
2026-05-06 01:47 22.88462 -82.55992 2042 ft 171 kts 30°
2026-05-06 01:47 22.89356 -82.55257 2040 ft 161 kts 47°
2026-05-06 01:48 22.90024 -82.54271 2044 ft 163 kts 56°
2026-05-06 01:48 22.90686 -82.53278 2049 ft 163 kts 53°
2026-05-06 01:48 22.91352 -82.52308 2050 ft 152 kts 54°
2026-05-06 01:48 22.91963 -82.51412 2061 ft 144 kts 55°
2026-05-06 01:49 22.92529 -82.50534 1948 ft 140 kts 56°
2026-05-06 01:49 22.93096 -82.49679 1784 ft 138 kts 54°
2026-05-06 01:49 22.93656 -82.48832 1591 ft 136 kts 55°
2026-05-06 01:49 22.94218 -82.47996 1418 ft 137 kts 55°
2026-05-06 01:50 22.94761 -82.47171 1245 ft 135 kts 55°
2026-05-06 01:50 22.95309 -82.46348 1070 ft 134 kts 55°
2026-05-06 01:50 22.95853 -82.45531 906 ft 133 kts 55°
2026-05-06 01:50 22.96398 -82.44712 733 ft 135 kts 53°
2026-05-06 01:51 22.96854 -82.44036 585 ft 131 kts 54°
2026-05-06 01:51 22.97392 -82.43232 409 ft 132 kts 57°
2026-05-06 01:51 22.97918 -82.42415 240 ft 131 kts 54°
2026-05-06 01:51 22.98375 -82.41718 210 ft 97 kts 55°
2026-05-06 01:52 22.98703 -82.41228 214 ft 61 kts 54°
2026-05-06 01:52 22.98884 -82.40953 210 ft 39 kts 54°
2026-05-06 01:52 22.99031 -82.40734 208 ft 34 kts 54°
2026-05-06 01:52 22.99159 -82.40537 213 ft 27 kts 54°
2026-05-06 01:53 22.99264 -82.40422 213 ft 17 kts 12°
2026-05-06 01:53 22.99392 -82.40400 211 ft 20 kts
2026-05-06 01:53 22.99512 -82.40327 212 ft 22 kts 54°
2026-05-06 01:53 22.99607 -82.40184 214 ft 25 kts 54°
2026-05-06 01:54 22.99685 -82.40091 215 ft 16 kts 21°
2026-05-06 01:54 22.99758 -82.40080 211 ft 5 kts
2026-05-06 01:54 22.99797 -82.40062 211 ft 8 kts 47°
2026-05-06 01:54 22.99835 -82.40006 211 ft 7 kts 55°
2026-05-06 01:55 22.99865 -82.39981 211 ft 2 kts
2026-05-06 01:55 22.99888 -82.39994 211 ft 2 kts 324°
2026-05-06 01:55 22.99899 -82.40003 211 ft 0 kts 324°
2026-05-06 01:55 22.99911 -82.40012 211 ft 0 kts 324°